DH5DY-6 Weather Reports


time (UTC)temp
C
wind
direction
speed
KPH
gust
KPH
rain 1hr
cm
rain 24hr
cm
rain mn
cm
humidity
%
barometer
mb
20260506134844 11 360 1.6 14.5 0.08 2.31 1.09 91 1004.0
20260506133844 11 360 4.8 9.7 0.15 2.31 1.09 92 1004.0
20260506132844 11 360 4.8 14.5 0.15 2.31 1.09 92 1003.9
20260506131845 11 360 4.8 14.5 0.15 2.31 1.09 92 1003.8
20260506130844 11 360 6.4 16.1 0.15 2.31 1.07 93 1003.8
20260506125844 11 360 4.8 12.9 0.13 2.29 1.04 93 1003.9
20260506124844 11 360 3.2 9.7 0.10 2.24 0.99 93 1003.8
20260506122844 11 360 3.2 4.8 0.08 2.18 0.94 92 1003.7
20260506121844 12 360 1.6 4.8 0.08 2.16 0.91 93 1003.7
20260506120844 11 360 3.2 6.4 0.10 2.16 0.91 93 1003.5
20260506115844 11 360 1.6 4.8 0.13 2.16 0.91 94 1003.5
20260506114845 11 360 0.0 3.2 0.10 2.13 0.89 93 1003.5
20260506113844 11 360 1.6 4.8 0.08 2.11 0.89 94 1003.5
20260506112844 11 360 0.0 3.2 0.05 2.11 0.86 93 1003.3
20260506111843 11 360 1.6 3.2 0.05 2.08 0.84 93 1003.5
20260506110844 11 360 0.0 4.8 0.05 2.06 0.81 93 1003.5
20260506105843 11 360 3.2 8.0 0.05 2.03 0.79 92 1003.4
20260506104843 11 360 0.0 6.4 0.05 2.03 0.79 93 1003.4
20260506103843 12 360 4.8 6.4 0.05 2.03 0.79 93 1003.4
20260506102843 12 360 0.0 0.0 0.05 2.03 0.79 94 1003.3
20260506101843 11 360 0.0 0.0 0.05 2.03 0.79 94 1003.3
20260506100844 11 360 0.0 3.2 0.05 2.01 0.76 94 1003.2
20260506095843 11 360 0.0 6.4 0.05 2.01 0.76 95 1003.2
20260506094843 11 360 1.6 4.8 0.08 2.01 0.76 95 1003.2
20260506093843 11 360 3.2 8.0 0.10 2.01 0.76 95 1003.2
20260506092843 11 360 4.8 8.0 0.15 2.01 0.76 95 1003.1
20260506091915 11 360 0.0 9.7 0.15 1.98 0.74 95 1003.1
20260506091843 11 360 0.0 9.7 0.15 1.98 0.74 95 1003.1
20260506090843 11 360 3.2 6.4 0.13 1.96 0.71 95 1003.1
20260506085842 11 360 1.6 6.4 0.10 1.93 0.71 95 1003.1
20260506084843 11 360 1.6 8.0 0.08 1.93 0.69 95 1003.0
20260506083843 10 360 1.6 6.4 0.05 1.91 0.66 95 1002.9
20260506082843 10 360 4.8 9.7 0.03 1.85 0.61 95 1002.9
20260506081842 10 360 6.4 12.9 0.00 1.83 0.61 95 1002.8
20260506080843 10 360 4.8 8.0 0.00 1.83 0.61 95 1002.8
20260506072842 10 360 6.4 8.0 0.00 1.83 0.61 95 1002.8
20260506071843 10 360 3.2 8.0 0.00 1.83 0.61 95 1002.7
20260506070842 10 360 6.4 8.0 0.00 1.83 0.61 95 1002.8
20260506061842 10 360 3.2 8.0 0.00 1.83 0.61 95 1002.6
20260506060842 10 360 3.2 8.0 0.00 1.83 0.61 95 1002.6
20260506050841 10 360 3.2 9.7 0.05 1.83 0.61 95 1002.6
20260506044842 10 360 3.2 6.4 0.03 1.83 0.58 95 1002.6
20260506043841 10 360 3.2 6.4 0.00 1.80 0.56 95 1002.6
20260506042842 10 360 1.6 9.7 0.00 1.80 0.56 95 1002.6
20260506041842 10 360 3.2 8.0 0.00 1.80 0.56 95 1002.6
20260506040842 10 360 3.2 9.7 0.00 1.80 0.56 95 1002.7
20260506035841 10 360 3.2 8.0 0.00 1.80 0.56 95 1002.8
20260506034842 10 360 3.2 4.8 0.00 1.80 0.56 95 1002.7
20260506033841 10 360 1.6 4.8 0.00 1.80 0.56 95 1002.8
20260506032841 10 360 1.6 4.8 0.00 1.80 0.56 95 1002.7
20260506031841 10 360 3.2 4.8 0.00 1.80 0.56 95 1002.8
20260506030841 10 360 1.6 6.4 0.00 1.80 0.56 95 1002.9
20260506025841 10 360 1.6 6.4 0.00 1.80 0.56 95 1002.9
20260506024841 10 360 3.2 8.0 0.00 1.80 0.56 95 1003.0
20260506023841 10 360 6.4 8.0 0.00 1.80 0.56 95 1003.1
20260506022841 10 360 3.2 9.7 0.00 1.80 0.56 95 1003.3
20260506021841 10 360 4.8 9.7 0.00 1.80 0.56 95 1003.3
20260506020841 10 360 6.4 8.0 0.00 1.80 0.56 95 1003.3
20260506015841 10 360 3.2 9.7 0.00 1.80 0.56 95 1003.3
20260506014841 10 360 3.2 8.0 0.00 1.80 0.56 95 1003.4
20260506013841 11 360 0.0 3.2 0.00 1.80 0.56 95 1003.3
20260506012841 11 360 3.2 8.0 0.00 1.80 0.56 95 1003.2
20260506011841 11 360 3.2 8.0 0.00 1.80 0.56 95 1003.3
20260506010840 11 360 4.8 8.0 0.00 1.80 0.56 95 1003.3
20260506005840 11 360 1.6 4.8 0.00 1.80 0.56 95 1003.3
20260506004841 11 360 0.0 4.8 0.03 1.80 0.56 95 1003.2
20260506003840 11 360 3.2 6.4 0.03 1.80 0.56 95 1003.4
20260506002840 11 360 3.2 6.4 0.05 1.80 0.56 95 1003.4
20260506001841 11 360 1.6 4.8 0.10 1.80 0.56 95 1003.3
20260506000840 11 360 0.0 3.2 0.18 1.80 0.56 95 1003.4
20260505235841 11 360 0.0 6.4 0.20 1.80 0.56 95 1003.6
20260505234840 11 360 1.6 6.4 0.18 1.78 0.53 95 1003.6
20260505233840 12 360 3.2 8.0 0.23 1.78 0.53 95 1003.5
20260505232841 12 360 4.8 8.0 0.33 1.75 0.51 95 1003.6
20260505231840 12 360 0.0 4.8 0.43 1.70 0.46 95 1003.6
20260505230840 12 360 0.0 1.6 0.33 1.63 0.38 95 1003.6
20260505225912 12 360 0.0 4.8 0.36 1.63 0.36 95 1003.6
20260505225840 12 360 0.0 4.8 0.36 1.63 0.36 95 1003.6
20260505224840 12 360 0.0 6.4 0.38 1.63 0.36 95 1003.6
20260505223840 12 360 1.6 3.2 0.33 1.55 0.30 95 1003.7
20260505222840 12 360 1.6 3.2 0.23 1.45 0.18 95 1003.8
20260505221840 12 360 0.0 3.2 0.13 1.30 0.05 95 1003.9
20260505220840 12 360 1.6 1.6 0.13 1.30 0.05 95 1003.9
20260505215840 12 360 0.0 0.0 0.10 1.27 1.27 95 1004.1
20260505214840 12 360 0.0 0.0 0.10 1.24 1.24 95 1004.1
20260505213839 12 360 0.0 0.0 0.08 1.22 1.22 95 1004.2
20260505212840 12 360 0.0 3.2 0.08 1.19 1.19 95 1004.4
20260505211840 12 360 1.6 3.2 0.08 1.17 1.17 95 1004.4
20260505210840 12 360 0.0 0.0 0.13 1.17 1.17 95 1004.5
20260505205840 12 360 0.0 0.0 0.15 1.17 1.17 94 1004.5
20260505204839 12 360 0.0 1.6 0.15 1.14 1.14 94 1004.6
20260505203839 12 360 0.0 0.0 0.18 1.14 1.14 94 1004.7
20260505202839 12 360 0.0 0.0 0.23 1.12 1.12 94 1004.6
20260505201839 12 360 0.0 0.0 0.25 1.09 1.09 94 1004.7
20260505200841 12 360 0.0 0.0 0.25 1.07 1.07 94 1004.7
20260505195840 12 360 0.0 0.0 0.23 1.02 1.02 94 1004.6
20260505194840 12 360 0.0 0.0 0.23 0.99 0.99 94 1004.5
20260505193839 12 360 0.0 0.0 0.23 0.97 0.97 94 1004.5
20260505192839 12 360 0.0 4.8 0.18 0.89 0.89 94 1004.6
20260505191839 13 360 0.0 1.6 0.15 0.84 0.84 94 1004.6
20260505185839 13 360 0.0 0.0 0.10 0.79 0.79 94 1004.5
20260505184839 13 360 0.0 0.0 0.10 0.76 0.76 93 1004.5
20260505182839 13 360 0.0 0.0 0.10 0.71 0.71 93 1004.6
20260505181839 13 360 0.0 0.0 0.13 0.71 0.71 93 1004.6
20260505180838 13 360 0.0 0.0 0.20 0.71 0.71 93 1004.7
20260505175838 13 360 0.0 0.0 0.23 0.69 0.69 93 1004.7
20260505174838 13 360 0.0 0.0 0.23 0.66 0.66 93 1004.8
20260505173839 13 360 0.0 0.0 0.30 0.64 0.64 93 1004.8
20260505172838 13 360 0.0 3.2 0.33 0.61 0.61 93 1004.8
20260505171838 13 360 1.6 4.8 0.41 0.58 0.58 93 1005.0
20260505170839 13 360 0.0 4.8 0.41 0.51 0.51 93 1004.9
20260505165838 13 360 0.0 4.8 0.43 0.46 0.46 93 1005.0
20260505164839 13 360 3.2 6.4 0.41 0.43 0.43 93 1005.0
20260505163839 13 360 4.8 8.0 0.33 0.33 0.33 92 1004.9
20260505162909 13 360 3.2 6.4 0.25 0.28 0.28 92 1004.9
20260505162838 13 360 3.2 6.4 0.25 0.28 0.28 92 1004.9
20260505161839 14 360 4.8 8.0 0.15 0.18 0.18 90 1004.9
20260505152838 15 360 0.0 3.2 0.00 0.05 0.03 83 1004.9
20260505151838 16 360 0.0 6.4 0.00 0.05 0.03 82 1004.9
20260505150837 16 360 4.8 6.4 0.00 0.05 0.03 77 1004.9